Flag for Czech Republic Weather past 2 weeks in Plzen, Czech Republic

Now
36 °F

Scattered clouds.


Feels Like: 29 °F
Forecast: 32 / 42 °F
Wind: 9 mph from West

Location: Kocelovice

Current Time: Mar 4, 2015 at 10:03:51 AM

Latest Report: Mar 4, 2015 at 9:00 AM


Visibility: 25 mi

Pressure: 30.24 "Hg

Humidity: 75%

Dew point: 29 °F

Location of PlzenLocation

Historic Weather in Plzen — Graph

°F

Plzen temperature yesterday

Maximum temperature yesterday: 43 °F (at 3:00 PM)
Minimum temperature yesterday: 32 °F (at 7:00 AM)
Average temperature yesterday: 36 °F

Past Weeks' High & Low Weather Summary

 TemperatureHumidityPressure
High51 °F (Feb 20, 4:00 PM)100% (Feb 23, 6:00 AM)30.79 "Hg (Feb 23, 6:00 AM)
Low24 °F (Feb 27, 7:00 AM)39% (Feb 20, 4:00 PM)29.50 "Hg (Feb 23, 2:00 PM)
Average34 °F81%30.06 "Hg
* Reported Feb 17 8:00 AM — Mar 4 8:00 AM, Plzen, Weather by CustomWeather, © 2015

Note: Actual official high and low records may vary slightly from our data, if they occured in-between our weather recording intervals... More about our weather records

Advertising

Plzen weather history for previous 24 hours

 ConditionsComfort  
Time TempWeatherWind HumidityBarometerVisibility
8:00 AM
Wed, Mar 4
34 °FLow clouds.5 mph90%30.22 "Hg14 mi
7:00 AM33 °FSleet. Low clouds.6 mph95%30.19 "Hg1 mi
6:00 AM35 °FLight rain. Overcast.7 mph85%30.15 "Hg12 mi
5:00 AM36 °FLight rain. Overcast.6 mph84%30.12 "Hg12 mi
3:00 AM41 °FQuite cool.8 mph58%30.06 "Hg12 mi
2:00 AM41 °FQuite cool.7 mph60%30.06 "Hg12 mi
1:00 AM38 °FChilly.5 mph60%30.09 "Hg12 mi
12:00 AM37 °FChilly.7 mph60%30.10 "Hg12 mi
11:00 PM
Tue, Mar 3
35 °FChilly.5 mph63%30.13 "Hg12 mi
10:00 PM35 °FChilly.3 mph64%30.14 "Hg12 mi
9:00 PM36 °FPassing clouds.5 mph60%30.15 "Hg31 mi
8:00 PM35 °FPassing clouds.3 mph62%30.16 "Hg31 mi
7:00 PM36 °FPassing clouds.3 mph61%30.17 "Hg37 mi
6:00 PM39 °FPassing clouds.6 mph55%30.16 "Hg43 mi
5:00 PM41 °FPassing clouds.8 mph50%30.15 "Hg37 mi
4:00 PM42 °FPassing clouds.8 mph49%30.15 "Hg37 mi
3:00 PM43 °FScattered clouds.9 mph48%30.15 "Hg37 mi
2:00 PM40 °FPartly sunny.9 mph53%30.17 "Hg37 mi
1:00 PM39 °FScattered clouds.10 mph57%30.18 "Hg37 mi
12:00 PM39 °FPassing clouds.10 mph58%30.18 "Hg31 mi
11:00 AM38 °FPassing clouds.10 mph63%30.18 "Hg25 mi
10:00 AM35 °FPassing clouds.12 mph68%30.18 "Hg25 mi
Weather by CustomWeather, © 2015

See weather overviewHow to use our weather pages